Location: Betzi
(47.2343°N, 9.5260°E)
Time: 23:17:42
(UTC+00:00)

Cosmos 2237 Rocket - Pass Details

Date: 27 May 2022
Orbit: 833 x 851 km, 71.0° (Epoch: 26 June)

Event Time Altitude Azimuth Distance (km) Brightness Sun altitude
Rises 02:39:02 0° 271° (W) 3,409 4.9 -8.1°
Reaches altitude 10° 02:42:58 10° 298° (WNW) 2,481 4.5 -7.6°
Maximum altitude 02:45:37 13° 326° (NNW) 2,259 4.6 -7.3°
Drops below altitude 10° 02:48:16 10° 354° (N) 2,488 5.2 -6.9°
Sets 02:52:15 0° 21° (NNE) 3,428 6.6 -6.4°
